| time (UTC) | temp C | wind direction | speed KPH | gust KPH | rain 1hr cm | rain 24hr cm | rain mn cm | humidity % | barometer mb |
| 20260502220011 | 30 | 1 | 4.8 | 4.8 | 0.00 | 0.00 | 0.00 | 77 | 1008.7 |
| 20260502215509 | 30 | 252 | 6.4 | 6.4 | 0.00 | 0.00 | 0.00 | 77 | 1008.6 |
| 20260502215005 | 31 | 335 | 4.8 | 6.4 | 0.00 | 0.00 | 0.00 | 76 | 1008.7 |
| 20260502214502 | 30 | 316 | 6.4 | 6.4 | 0.00 | 0.00 | 0.00 | 76 | 1008.6 |
| 20260502214000 | 31 | 245 | 8.0 | 11.3 | 0.00 | 0.00 | 0.00 | 74 | 1008.9 |
| 20260502213456 | 31 | 187 | 1.6 | 1.6 | 0.00 | 0.00 | 0.00 | 75 | 1009.1 |
| 20260502212954 | 31 | 310 | 6.4 | 6.4 | 0.00 | 0.00 | 0.00 | 75 | 1009.0 |
| 20260502212453 | 31 | 238 | 6.4 | 6.4 | 0.00 | 0.00 | 0.00 | 74 | 1008.8 |
| 20260502211950 | 31 | 341 | 6.4 | 6.4 | 0.00 | 0.00 | 0.00 | 74 | 1009.0 |
| 20260502211445 | 31 | 300 | 6.4 | 9.7 | 0.00 | 0.00 | 0.00 | 73 | 1009.0 |
| 20260502210943 | 31 | 345 | 4.8 | 6.4 | 0.00 | 0.00 | 0.00 | 73 | 1008.9 |
| 20260502210440 | 31 | 338 | 3.2 | 3.2 | 0.00 | 0.00 | 0.00 | 73 | 1009.0 |
| 20260502205937 | 31 | 191 | 3.2 | 6.4 | 0.00 | 0.00 | 0.00 | 74 | 1009.1 |
| 20260502205433 | 31 | 314 | 6.4 | 6.4 | 0.00 | 0.00 | 0.00 | 72 | 1009.1 |
| 20260502204931 | 31 | 312 | 6.4 | 9.7 | 0.00 | 0.00 | 0.00 | 71 | 1009.0 |
| 20260502204427 | 31 | 283 | 3.2 | 4.8 | 0.00 | 0.00 | 0.00 | 71 | 1008.9 |
| 20260502203925 | 31 | 323 | 6.4 | 9.7 | 0.00 | 0.00 | 0.00 | 70 | 1008.9 |
| 20260502203423 | 31 | 352 | 3.2 | 6.4 | 0.00 | 0.00 | 0.00 | 70 | 1008.9 |
| 20260502202918 | 31 | 330 | 8.0 | 9.7 | 0.00 | 0.00 | 0.00 | 70 | 1008.9 |
| 20260502202415 | 31 | 41 | 6.4 | 9.7 | 0.00 | 0.00 | 0.00 | 70 | 1009.0 |
| 20260502201914 | 31 | 188 | 3.2 | 4.8 | 0.00 | 0.00 | 0.00 | 70 | 1008.9 |
| 20260502201409 | 31 | 356 | 4.8 | 6.4 | 0.00 | 0.00 | 0.00 | 70 | 1009.1 |
| 20260502200906 | 31 | 107 | 6.4 | 6.4 | 0.00 | 0.00 | 0.00 | 68 | 1009.0 |
| 20260502200401 | 31 | 21 | 4.8 | 9.7 | 0.00 | 0.00 | 0.00 | 68 | 1008.9 |
| 20260502195900 | 31 | 339 | 9.7 | 12.9 | 0.00 | 0.00 | 0.00 | 67 | 1009.0 |
| 20260502195356 | 31 | 290 | 4.8 | 11.3 | 0.00 | 0.00 | 0.00 | 68 | 1009.0 |
| 20260502194853 | 31 | 344 | 3.2 | 6.4 | 0.00 | 0.00 | 0.00 | 68 | 1009.1 |
| 20260502194350 | 31 | 245 | 4.8 | 4.8 | 0.00 | 0.00 | 0.00 | 69 | 1009.1 |
| 20260502193845 | 31 | 307 | 4.8 | 6.4 | 0.00 | 0.00 | 0.00 | 66 | 1009.3 |
| 20260502193343 | 31 | 98 | 8.0 | 14.5 | 0.00 | 0.00 | 0.00 | 66 | 1009.3 |
| 20260502192838 | 31 | 261 | 8.0 | 9.7 | 0.00 | 0.00 | 0.00 | 67 | 1009.4 |
| 20260502192336 | 31 | 2 | 8.0 | 12.9 | 0.00 | 0.00 | 0.00 | 66 | 1009.4 |
| 20260502191832 | 31 | 68 | 1.6 | 1.6 | 0.00 | 0.00 | 0.00 | 67 | 1009.5 |
| 20260502191331 | 32 | 238 | 6.4 | 11.3 | 0.00 | 0.00 | 0.00 | 66 | 1009.7 |
| 20260502190828 | 31 | 15 | 4.8 | 6.4 | 0.00 | 0.00 | 0.00 | 67 | 1009.8 |
| 20260502190325 | 31 | 288 | 6.4 | 9.7 | 0.00 | 0.00 | 0.00 | 66 | 1009.6 |
| 20260502185820 | 31 | 248 | 9.7 | 12.9 | 0.00 | 0.00 | 0.00 | 66 | 1009.7 |
| 20260502185316 | 31 | 328 | 11.3 | 17.7 | 0.00 | 0.00 | 0.00 | 66 | 1009.9 |
| 20260502184814 | 31 | 337 | 9.7 | 11.3 | 0.00 | 0.00 | 0.00 | 65 | 1009.9 |
| 20260502184309 | 31 | 177 | 3.2 | 4.8 | 0.00 | 0.00 | 0.00 | 64 | 1010.0 |
| 20260502183806 | 31 | 21 | 4.8 | 6.4 | 0.00 | 0.00 | 0.00 | 65 | 1010.1 |
| 20260502183302 | 31 | 9 | 4.8 | 9.7 | 0.00 | 0.00 | 0.00 | 65 | 1010.2 |
| 20260502182757 | 32 | 176 | 1.6 | 3.2 | 0.00 | 0.00 | 0.00 | 65 | 1010.0 |
| 20260502182253 | 31 | 282 | 4.8 | 6.4 | 0.00 | 0.00 | 0.00 | 66 | 1010.0 |
| 20260502181750 | 31 | 317 | 8.0 | 11.3 | 0.00 | 0.00 | 0.00 | 65 | 1010.2 |
| 20260502181249 | 31 | 16 | 6.4 | 12.9 | 0.00 | 0.00 | 0.00 | 66 | 1010.2 |
| 20260502180746 | 31 | 299 | 6.4 | 6.4 | 0.00 | 0.00 | 0.00 | 66 | 1010.4 |
| 20260502180243 | 32 | 1 | 9.7 | 14.5 | 0.00 | 0.00 | 0.00 | 65 | 1010.4 |
| 20260502170208 | 31 | 341 | 8.0 | 9.7 | 0.00 | 0.00 | 0.00 | 69 | 1010.8 |
| 20260502164154 | 30 | 357 | 9.7 | 16.1 | 0.00 | 0.00 | 0.00 | 74 | 1011.0 |
| 20260502163650 | 30 | 323 | 6.4 | 9.7 | 0.00 | 0.00 | 0.00 | 74 | 1010.9 |
| 20260502163147 | 30 | 336 | 9.7 | 11.3 | 0.00 | 0.00 | 0.00 | 73 | 1011.2 |
| 20260502162644 | 30 | 37 | 8.0 | 11.3 | 0.00 | 0.00 | 0.00 | 74 | 1011.0 |
| 20260502162141 | 31 | 127 | 4.8 | 6.4 | 0.00 | 0.00 | 0.00 | 73 | 1011.1 |
| 20260502161638 | 30 | 243 | 1.6 | 1.6 | 0.00 | 0.00 | 0.00 | 74 | 1011.1 |
| 20260502161134 | 30 | 53 | 4.8 | 11.3 | 0.00 | 0.00 | 0.00 | 74 | 1011.1 |
| 20260502160632 | 30 | 313 | 6.4 | 6.4 | 0.00 | 0.00 | 0.00 | 75 | 1011.2 |
| 20260502160131 | 30 | 307 | 11.3 | 14.5 | 0.00 | 0.00 | 0.00 | 75 | 1011.0 |
| 20260502152045 | 30 | 344 | 3.2 | 4.8 | 0.00 | 0.00 | 0.00 | 76 | 1011.0 |
| 20260502151542 | 30 | 323 | 4.8 | 6.4 | 0.00 | 0.00 | 0.00 | 76 | 1011.0 |
| 20260502151040 | 30 | 62 | 6.4 | 9.7 | 0.00 | 0.00 | 0.00 | 76 | 1011.0 |
| 20260502150537 | 30 | 335 | 6.4 | 6.4 | 0.00 | 0.00 | 0.00 | 76 | 1011.1 |
| 20260502130422 | -17 | 0.0 | 0.0 | 0.00 | 0.00 | 0.00 | 1010.2 | ||
| 20260502123404 | -17 | 0.0 | 0.0 | 0.00 | 0.00 | 0.00 | 1009.9 | ||
| 20260502122902 | -17 | 0.0 | 0.0 | 0.00 | 0.00 | 0.00 | 1009.8 | ||
| 20260502122358 | -17 | 0.0 | 0.0 | 0.00 | 0.00 | 0.00 | 1009.8 | ||
| 20260502121856 | -17 | 0.0 | 0.0 | 0.00 | 0.00 | 0.00 | 1009.7 | ||
| 20260502121353 | -17 | 0.0 | 0.0 | 0.00 | 0.00 | 0.00 | 1009.8 | ||
| 20260502120850 | -17 | 0.0 | 0.0 | 0.00 | 0.00 | 0.00 | 1009.8 | ||
| 20260502120346 | -17 | 0.0 | 0.0 | 0.00 | 0.00 | 0.00 | 1009.6 | ||
| 20260502115844 | -17 | 0.0 | 0.0 | 0.00 | 0.00 | 0.00 | 1009.7 | ||
| 20260502115341 | -17 | 0.0 | 0.0 | 0.00 | 0.00 | 0.00 | 1009.6 | ||
| 20260502114837 | -17 | 0.0 | 0.0 | 0.00 | 0.00 | 0.00 | 1009.6 | ||
| 20260502114334 | -17 | 0.0 | 0.0 | 0.00 | 0.00 | 0.00 | 1009.4 | ||
| 20260502113831 | -17 | 0.0 | 0.0 | 0.00 | 0.00 | 0.00 | 1009.4 | ||
| 20260502113329 | -17 | 0.0 | 0.0 | 0.00 | 0.00 | 0.00 | 1009.4 | ||
| 20260502112827 | -17 | 0.0 | 0.0 | 0.00 | 0.00 | 0.00 | 1009.4 | ||
| 20260502112324 | -17 | 0.0 | 0.0 | 0.00 | 0.00 | 0.00 | 1009.3 | ||
| 20260502111821 | -17 | 0.0 | 0.0 | 0.00 | 0.00 | 0.00 | 1009.1 | ||
| 20260502111319 | -17 | 0.0 | 0.0 | 0.00 | 0.00 | 0.00 | 1009.1 | ||
| 20260502110816 | -17 | 0.0 | 0.0 | 0.00 | 0.00 | 0.00 | 1009.2 | ||
| 20260502110314 | -17 | 0.0 | 0.0 | 0.00 | 0.00 | 0.00 | 1008.9 | ||
| 20260502105812 | -17 | 0.0 | 0.0 | 0.00 | 0.00 | 0.00 | 1008.7 | ||
| 20260502105308 | -17 | 0.0 | 0.0 | 0.00 | 0.00 | 0.00 | 1009.0 | ||
| 20260502104806 | -17 | 0.0 | 0.0 | 0.00 | 0.00 | 0.00 | 1009.0 | ||
| 20260502104303 | -17 | 0.0 | 0.0 | 0.00 | 0.00 | 0.00 | 1009.0 | ||
| 20260502103800 | -17 | 0.0 | 0.0 | 0.00 | 0.00 | 0.00 | 1008.9 | ||
| 20260502103257 | -17 | 0.0 | 0.0 | 0.00 | 0.00 | 0.00 | 1008.8 | ||
| 20260502102755 | -17 | 0.0 | 0.0 | 0.00 | 0.00 | 0.00 | 1008.7 | ||
| 20260502102251 | -17 | 0.0 | 0.0 | 0.00 | 0.00 | 0.00 | 1008.7 | ||
| 20260502101749 | -17 | 0.0 | 0.0 | 0.00 | 0.00 | 0.00 | 1008.7 | ||
| 20260502101247 | -17 | 0.0 | 0.0 | 0.00 | 0.00 | 0.00 | 1008.6 | ||
| 20260502100745 | -17 | 0.0 | 0.0 | 0.00 | 0.00 | 0.00 | 1008.7 | ||
| 20260502100243 | -17 | 0.0 | 0.0 | 0.00 | 0.00 | 0.00 | 1008.7 | ||
| 20260502091217 | -17 | 0.0 | 0.0 | 0.00 | 0.00 | 0.00 | 1008.5 | ||
| 20260502090715 | -17 | 0.0 | 0.0 | 0.00 | 0.00 | 0.00 | 1008.5 | ||
| 20260502090211 | -17 | 0.0 | 0.0 | 0.00 | 0.00 | 0.00 | 1008.4 | ||
| 20260502071107 | 27 | 73 | 1.6 | 4.8 | 0.00 | 0.00 | 0.00 | 85 | 1009.0 |
| 20260502070605 | 27 | 313 | 9.7 | 12.9 | 0.00 | 0.00 | 0.00 | 85 | 1008.9 |
| 20260502065600 | 27 | 6 | 8.0 | 11.3 | 0.00 | 0.00 | 0.00 | 86 | 1008.9 |
| 20260502065058 | 27 | 335 | 8.0 | 11.3 | 0.00 | 0.00 | 0.00 | 85 | 1008.8 |
| 20260502064556 | 27 | 257 | 1.6 | 1.6 | 0.00 | 0.00 | 0.00 | 85 | 1009.0 |
| 20260502064053 | 27 | 286 | 6.4 | 11.3 | 0.00 | 0.00 | 0.00 | 85 | 1008.8 |
| 20260502063551 | 27 | 38 | 6.4 | 9.7 | 0.00 | 0.00 | 0.00 | 85 | 1009.0 |
| 20260502063048 | 27 | 309 | 8.0 | 11.3 | 0.00 | 0.00 | 0.00 | 86 | 1009.0 |
| 20260502062545 | 27 | 171 | 6.4 | 11.3 | 0.00 | 0.00 | 0.00 | 86 | 1008.9 |
| 20260502062043 | 27 | 275 | 9.7 | 14.5 | 0.00 | 0.00 | 0.00 | 86 | 1009.0 |
| 20260502061541 | 27 | 303 | 8.0 | 11.3 | 0.00 | 0.00 | 0.00 | 86 | 1008.8 |
| 20260502061038 | 27 | 313 | 8.0 | 11.3 | 0.00 | 0.00 | 0.00 | 86 | 1008.9 |
| 20260502060533 | 27 | 1 | 6.4 | 11.3 | 0.00 | 0.00 | 0.00 | 86 | 1009.1 |
| 20260502060030 | 27 | 355 | 4.8 | 6.4 | 0.00 | 0.00 | 0.00 | 86 | 1009.0 |
| 20260502055528 | 27 | 82 | 12.9 | 22.5 | 0.00 | 0.00 | 0.00 | 86 | 1008.9 |
| 20260502055026 | 27 | 345 | 8.0 | 11.3 | 0.00 | 0.00 | 0.00 | 86 | 1009.0 |
| 20260502054525 | 27 | 339 | 3.2 | 4.8 | 0.00 | 0.00 | 0.00 | 86 | 1009.1 |
| 20260502054021 | 27 | 329 | 11.3 | 16.1 | 0.00 | 0.00 | 0.00 | 86 | 1009.0 |
| 20260502053518 | 27 | 302 | 4.8 | 4.8 | 0.00 | 0.00 | 0.00 | 86 | 1009.3 |
| 20260502053016 | 27 | 210 | 1.6 | 1.6 | 0.00 | 0.00 | 0.00 | 86 | 1009.3 |
| 20260502052514 | 27 | 351 | 6.4 | 9.7 | 0.00 | 0.00 | 0.00 | 86 | 1009.2 |
| 20260502052012 | 27 | 135 | 3.2 | 4.8 | 0.00 | 0.00 | 0.00 | 86 | 1009.1 |
| 20260502051510 | 27 | 52 | 12.9 | 16.1 | 0.00 | 0.00 | 0.00 | 86 | 1009.2 |
| 20260502051007 | 28 | 37 | 16.1 | 20.9 | 0.00 | 0.00 | 0.00 | 86 | 1009.2 |
| 20260502050503 | 28 | 27 | 3.2 | 4.8 | 0.00 | 0.00 | 0.00 | 86 | 1009.3 |
| 20260502050000 | 28 | 40 | 8.0 | 9.7 | 0.00 | 0.00 | 0.00 | 86 | 1009.2 |
| 20260502045457 | 28 | 327 | 8.0 | 12.9 | 0.00 | 0.00 | 0.00 | 87 | 1009.3 |
| 20260502044954 | 28 | 335 | 12.9 | 17.7 | 0.00 | 0.00 | 0.00 | 87 | 1009.5 |
| 20260502044450 | 28 | 282 | 9.7 | 20.9 | 0.00 | 0.00 | 0.00 | 87 | 1009.4 |
| 20260502043947 | 28 | 58 | 8.0 | 12.9 | 0.00 | 0.00 | 0.00 | 87 | 1009.3 |
| 20260502043445 | 28 | 351 | 6.4 | 11.3 | 0.00 | 0.00 | 0.00 | 87 | 1009.3 |
| 20260502042944 | 28 | 275 | 1.6 | 3.2 | 0.00 | 0.00 | 0.00 | 87 | 1009.2 |
| 20260502042441 | 28 | 55 | 8.0 | 11.3 | 0.00 | 0.00 | 0.00 | 87 | 1009.2 |
| 20260502041938 | 28 | 17 | 4.8 | 12.9 | 0.00 | 0.00 | 0.00 | 87 | 1009.1 |
| 20260502041436 | 28 | 320 | 14.5 | 17.7 | 0.00 | 0.00 | 0.00 | 87 | 1009.2 |
| 20260502040933 | 28 | 223 | 9.7 | 14.5 | 0.00 | 0.00 | 0.00 | 87 | 1009.3 |
| 20260502040429 | 28 | 31 | 6.4 | 9.7 | 0.00 | 0.00 | 0.00 | 87 | 1009.2 |
| 20260502035926 | 28 | 338 | 16.1 | 20.9 | 0.00 | 0.00 | 0.00 | 87 | 1009.2 |
| 20260502035422 | 28 | 277 | 12.9 | 20.9 | 0.00 | 0.00 | 0.00 | 87 | 1009.2 |
| 20260502034920 | 28 | 311 | 12.9 | 22.5 | 0.00 | 0.00 | 0.00 | 87 | 1009.2 |
| 20260502034419 | 28 | 309 | 4.8 | 6.4 | 0.00 | 0.00 | 0.00 | 87 | 1009.2 |
| 20260502033917 | 28 | 51 | 3.2 | 4.8 | 0.00 | 0.00 | 0.00 | 87 | 1009.0 |
| 20260502033414 | 28 | 64 | 12.9 | 16.1 | 0.00 | 0.00 | 0.00 | 87 | 1009.2 |
| 20260502032910 | 28 | 230 | 9.7 | 16.1 | 0.00 | 0.00 | 0.00 | 87 | 1008.9 |
| 20260502032407 | 28 | 2 | 6.4 | 11.3 | 0.00 | 0.00 | 0.00 | 87 | 1008.7 |
| 20260502031904 | 28 | 320 | 4.8 | 6.4 | 0.00 | 0.00 | 0.00 | 87 | 1008.8 |
| 20260502031402 | 28 | 185 | 4.8 | 6.4 | 0.00 | 0.00 | 0.00 | 87 | 1008.8 |
| 20260502030900 | 28 | 189 | 6.4 | 9.7 | 0.00 | 0.00 | 0.00 | 86 | 1008.5 |
| 20260502030358 | 28 | 341 | 3.2 | 4.8 | 0.00 | 0.00 | 0.00 | 86 | 1008.6 |
| 20260502025855 | 28 | 332 | 9.7 | 14.5 | 0.00 | 0.00 | 0.00 | 86 | 1008.6 |
| 20260502025353 | 28 | 51 | 3.2 | 4.8 | 0.00 | 0.00 | 0.00 | 86 | 1008.2 |
| 20260502024850 | 28 | 271 | 3.2 | 6.4 | 0.00 | 0.00 | 0.00 | 86 | 1008.6 |
| 20260502024348 | 28 | 250 | 6.4 | 12.9 | 0.00 | 0.00 | 0.00 | 86 | 1008.4 |
| 20260502023846 | 28 | 200 | 4.8 | 4.8 | 0.00 | 0.00 | 0.00 | 86 | 1008.4 |
| 20260502023343 | 28 | 220 | 6.4 | 11.3 | 0.00 | 0.00 | 0.00 | 86 | 1008.2 |
| 20260502022841 | 28 | 157 | 4.8 | 6.4 | 0.00 | 0.00 | 0.00 | 86 | 1008.4 |
| 20260502022337 | 28 | 347 | 4.8 | 6.4 | 0.00 | 0.00 | 0.00 | 86 | 1008.2 |
| 20260502021834 | 28 | 228 | 8.0 | 12.9 | 0.00 | 0.00 | 0.00 | 86 | 1008.2 |
| 20260502021331 | 28 | 78 | 6.4 | 9.7 | 0.00 | 0.00 | 0.00 | 86 | 1008.2 |
| 20260502020829 | 28 | 182 | 1.6 | 1.6 | 0.00 | 0.00 | 0.00 | 86 | 1008.2 |
| 20260502020326 | 28 | 100 | 6.4 | 11.3 | 0.00 | 0.00 | 0.00 | 86 | 1008.4 |
| 20260502015823 | 28 | 281 | 3.2 | 4.8 | 0.00 | 0.00 | 0.00 | 86 | 1008.1 |
| 20260502015320 | 28 | 45 | 6.4 | 11.3 | 0.00 | 0.00 | 0.00 | 86 | 1008.1 |
| 20260502014817 | 28 | 260 | 6.4 | 9.7 | 0.00 | 0.00 | 0.00 | 86 | 1008.1 |
| 20260502014314 | 28 | 31 | 4.8 | 9.7 | 0.00 | 0.00 | 0.00 | 86 | 1008.0 |
| 20260502013810 | 28 | 67 | 4.8 | 4.8 | 0.00 | 0.00 | 0.00 | 85 | 1007.9 |
| 20260502013306 | 28 | 0 | 4.8 | 6.4 | 0.00 | 0.00 | 0.00 | 85 | 1007.9 |
| 20260502012803 | 28 | 170 | 6.4 | 6.4 | 0.00 | 0.00 | 0.00 | 85 | 1007.9 |
| 20260502012300 | 28 | 321 | 4.8 | 6.4 | 0.00 | 0.00 | 0.00 | 85 | 1007.9 |
| 20260502011758 | 28 | 5 | 11.3 | 17.7 | 0.00 | 0.00 | 0.00 | 85 | 1007.7 |
| 20260502011254 | 28 | 73 | 4.8 | 9.7 | 0.00 | 0.00 | 0.00 | 84 | 1007.8 |
| 20260502010751 | 28 | 65 | 4.8 | 9.7 | 0.00 | 0.00 | 0.00 | 85 | 1007.6 |
| 20260502010247 | 28 | 19 | 3.2 | 4.8 | 0.00 | 0.00 | 0.00 | 85 | 1007.8 |
| 20260502005744 | 28 | 50 | 4.8 | 6.4 | 0.00 | 0.00 | 0.00 | 85 | 1007.8 |
| 20260502005242 | 28 | 23 | 19.3 | 24.1 | 0.00 | 0.00 | 0.00 | 84 | 1007.8 |
| 20260502004739 | 28 | 29 | 6.4 | 11.3 | 0.00 | 0.00 | 0.00 | 84 | 1007.8 |
| 20260502004235 | 28 | 241 | 1.6 | 1.6 | 0.00 | 0.00 | 0.00 | 84 | 1007.3 |
| 20260502003733 | 28 | 321 | 1.6 | 3.2 | 0.00 | 0.00 | 0.00 | 84 | 1007.6 |
| 20260502003230 | 28 | 138 | 4.8 | 9.7 | 0.00 | 0.00 | 0.00 | 84 | 1007.5 |
| 20260502002726 | 28 | 43 | 8.0 | 12.9 | 0.00 | 0.00 | 0.00 | 83 | 1007.4 |
| 20260502002224 | 28 | 317 | 4.8 | 9.7 | 0.00 | 0.00 | 0.00 | 83 | 1007.5 |
| 20260502001720 | 28 | 135 | 6.4 | 9.7 | 0.00 | 0.00 | 0.00 | 83 | 1007.2 |
| 20260502001219 | 28 | 40 | 3.2 | 4.8 | 0.00 | 0.00 | 0.00 | 83 | 1007.1 |
| 20260502000716 | 28 | 18 | 3.2 | 4.8 | 0.00 | 0.00 | 0.00 | 83 | 1007.2 |
| 20260502000214 | 28 | 88 | 3.2 | 4.8 | 0.00 | 0.00 | 0.00 | 83 | 1007.2 |
| 20260501235709 | 28 | 211 | 1.6 | 3.2 | 0.00 | 0.00 | 0.00 | 83 | 1007.3 |
| 20260501235205 | 28 | 317 | 14.5 | 24.1 | 0.00 | 0.00 | 0.00 | 82 | 1007.1 |
| 20260501234701 | 28 | 209 | 1.6 | 1.6 | 0.00 | 0.00 | 0.00 | 82 | 1007.2 |
| 20260501234159 | 28 | 82 | 8.0 | 11.3 | 0.00 | 0.00 | 0.00 | 81 | 1007.0 |
| 20260501233657 | 28 | 284 | 9.7 | 14.5 | 0.00 | 0.00 | 0.00 | 81 | 1007.1 |
| 20260501233153 | 29 | 105 | 4.8 | 6.4 | 0.00 | 0.00 | 0.00 | 80 | 1006.9 |
| 20260501232649 | 29 | 315 | 3.2 | 3.2 | 0.00 | 0.00 | 0.00 | 80 | 1006.9 |
| 20260501232147 | 30 | 8 | 8.0 | 11.3 | 0.00 | 0.00 | 0.00 | 79 | 1006.8 |
| 20260501231644 | 29 | 91 | 1.6 | 1.6 | 0.00 | 0.00 | 0.00 | 78 | 1006.8 |
| 20260501231143 | 30 | 54 | 3.2 | 6.4 | 0.00 | 0.00 | 0.00 | 78 | 1006.8 |
| 20260501230641 | 30 | 328 | 9.7 | 17.7 | 0.00 | 0.00 | 0.00 | 78 | 1006.7 |
| 20260501230139 | 30 | 260 | 6.4 | 9.7 | 0.00 | 0.00 | 0.00 | 76 | 1006.9 |
| 20260501225636 | 30 | 75 | 14.5 | 17.7 | 0.00 | 0.00 | 0.00 | 76 | 1006.8 |
| 20260501225132 | 30 | 194 | 3.2 | 4.8 | 0.00 | 0.00 | 0.00 | 75 | 1006.8 |
| 20260501224629 | 30 | 9 | 4.8 | 11.3 | 0.00 | 0.00 | 0.00 | 76 | 1006.6 |
| 20260501224126 | 30 | 225 | 8.0 | 14.5 | 0.00 | 0.00 | 0.00 | 75 | 1006.7 |
| 20260501223623 | 30 | 338 | 11.3 | 16.1 | 0.00 | 0.00 | 0.00 | 74 | 1006.6 |
| 20260501223119 | 30 | 88 | 8.0 | 14.5 | 0.00 | 0.00 | 0.00 | 75 | 1006.6 |
| 20260501222615 | 30 | 224 | 4.8 | 6.4 | 0.00 | 0.00 | 0.00 | 75 | 1006.7 |
| 20260501222112 | 30 | 240 | 3.2 | 4.8 | 0.00 | 0.00 | 0.00 | 75 | 1006.6 |
| 20260501221609 | 30 | 63 | 9.7 | 14.5 | 0.00 | 0.00 | 0.00 | 75 | 1006.6 |
| 20260501221107 | 30 | 289 | 6.4 | 11.3 | 0.00 | 0.00 | 0.00 | 74 | 1006.5 |
| 20260501220605 | 30 | 80 | 3.2 | 9.7 | 0.00 | 0.00 | 0.00 | 74 | 1006.8 |